星链-6144 (STARLINK-6144 )

导读

STARLINK-6144是美国SpaceX公司星链(Starlink)卫星互联网项目中的一颗卫星,于2023年6月12日由猎鹰9号火箭在大西洋海域完成发射任务,本次任务同步完成了第一级助推器海上回收。 星链项目旨在打造近地轨道巨型卫星星座,为全球偏远地区提供高速低延迟宽带互联网服务。该卫星入轨后,将助力星链进一步完善全球网络覆盖,推动卫星互联网服务普及。

基本信息
目录编号:
56894
目录名称:
STARLINK-6144
国际标识:
2023-083U
轨道中心:
EARTH
卫星名称:
星链-6144
卫星全名:
星链-6144 (STARLINK-6144 )
卫星状态:
在轨 (已飞行1098 天)
发射日期:
2023-06-12 UTC
国别 :
美国 (US)
星等 :
--
轨道信息
数据来源 国际轨道数据
星历时间: 2026-06-14T21:11:51+0800
9小时前
查看轨道信息
半长轴: 6861.157km
偏心率: 0.0001486
轨道倾角: 43.004°
近地点辐角 261.206°
升交点赤经 261.614°
平近点角 98.863°
近地点: 482km
远地点: 484.04km
周期: 94.266分钟
每日圈数: 15.2759
详细信息
固有亮度:
5
最大亮度:
2.4
卫星平台:
Starlink v1.5
覆盖范围:
全球
运营商:
太空探索技术公司
运营商所在国:
美国
制造商(研发单位):
太空探索技术公司
制造商所在国:
美国
使用方式:
暂无
卫星简介
星链(Starlink)计划是由太空探索技术公司(SpaceX)提出的一个巨型低轨卫星互联网星座项目,计划在2019年至2024年间在太空搭建由约1.2万颗卫星组成的“星链”网络,其中1584颗将部署在地球上空550千米处的近地轨道,并从2020年开始工作。该卫星仍在工作。
2D轨道图
3D轨道图
轨道高度分析图
轨道倾角分析图
轨道综合分析图
查看轨道综合分析图